Weather History for Troy, MI

Change the Weather History Date:

Sunday, February 17, 2013

  Actual Average (KDET) Record (KDET)
Temperature  
Mean Temperature 20 °F -  
Max Temperature 27 °F 32 °F 75 °F (2007)
Min Temperature 14 °F 20 °F -7 °F (1958)
Degree Days  
Heating Degree Days 44    
Moisture  
Dew Point 6 °F    
Average Humidity 52    
Maximum Humidity 80    
Minimum Humidity 37    
Precipitation  
Precipitation 0.00 in - - ()
Sea Level Pressure  
Sea Level Pressure 30.18 in    
Wind  
Wind Speed 7 mph (NW)    
Max Wind Speed 13 mph    
Max Gust Speed 20 mph    
Visibility 10 miles    
Events      
Averages and records for this station are not official NWS values.
T = Trace of Precipitation, MM = Missing Value Source: NWS Daily Summary

Daily Weather History Graph

Daily Weather History Graph

Search for Another Location

Airport:

Trip Planner

Search our weather history database for the weather conditions in past years. The results will help you decide how hot, cold, wet, or windy it might be!

Date:

Astronomy

Feb. 17, 2013 Rise Set
Actual Time 7:26 AM EST 6:07 PM EST
Civil Twilight 6:57 AM EST 6:36 PM EST
Nautical Twilight 6:24 AM EST 7:09 PM EST
Astronomical Twilight 5:52 AM EST 7:42 PM EST
Moon 11:08 AM EST (2/17) 1:12 AM EST (2/17)
Length of Visible Light 11h 38m
Length of Day
10h 41m
Waxing Crescent, 49% of the Moon is Illuminated
Feb 17
Waxing Crescent
Feb 17
First Quarter
Feb 25
Full
Mar 4
Last Quarter
Mar 11
New

Hourly Weather History & Observations

Time (EST) Temp. Windchill Dew Point Humidity Pressure Visibility Wind Dir Wind Speed Gust Speed Precip Events Conditions
2:59 AM 19.4 °F 9.5 °F 14.0 °F 80% 30.07 in 10.0 mi NNW 8.1 mph - N/A   Overcast
3:59 AM 17.6 °F 5.0 °F 10.4 °F 73% 30.08 in 10.0 mi NNW 11.5 mph - N/A   Scattered Clouds
4:59 AM 15.8 °F 6.1 °F 8.6 °F 73% 30.09 in 10.0 mi NNW 6.9 mph - N/A   Scattered Clouds
5:59 AM 14.0 °F 5.1 °F 6.8 °F 73% 30.11 in 10.0 mi NW 5.8 mph - N/A   Scattered Clouds
6:59 AM 14.0 °F 6.5 °F 6.8 °F 73% 30.13 in 10.0 mi WNW 4.6 mph - N/A   Clear
7:59 AM 14.0 °F 3.9 °F 5.0 °F 67% 30.14 in 10.0 mi WNW 6.9 mph - N/A   Clear
8:59 AM 15.8 °F 4.2 °F 5.0 °F 62% 30.15 in 10.0 mi NW 9.2 mph - N/A   Clear
9:34 AM 16.7 °F 6.2 °F 5.7 °F 62% 30.16 in 10.0 mi NW 8.1 mph - N/A   Clear
9:36 AM 16.7 °F 7.2 °F 5.5 °F 62% 30.16 in 10.0 mi NW 6.9 mph - N/A   Clear
9:54 AM 17.6 °F 8.2 °F 5.9 °F 60% 30.17 in 10.0 mi NW 6.9 mph - N/A   Clear
10:14 AM 18.7 °F 8.6 °F 6.6 °F 59% 30.17 in 10.0 mi NW 8.1 mph - N/A   Clear
10:34 AM 19.8 °F 10.8 °F 6.6 °F 57% 30.17 in 10.0 mi NW 6.9 mph - N/A   Clear
10:54 AM 20.8 °F 10.4 °F 6.6 °F 54% 30.18 in 10.0 mi NW 9.2 mph 16.1 mph N/A   Clear
11:15 AM 21.4 °F 11.1 °F 5.5 °F 51% 30.18 in 10.0 mi WNW 9.2 mph - N/A   Clear
11:34 AM 22.1 °F 10.6 °F 5.7 °F 49% 30.19 in 10.0 mi NW 11.5 mph - N/A   Clear
11:54 AM 22.3 °F 12.2 °F 5.2 °F 48% 30.19 in 10.0 mi NNW 9.2 mph - N/A   Clear
12:14 PM 23.4 °F 13.5 °F 5.5 °F 47% 30.19 in 10.0 mi WNW 9.2 mph - N/A   Clear
12:34 PM 23.9 °F 14.2 °F 6.4 °F 47% 30.19 in 10.0 mi NW 9.2 mph - N/A   Clear
12:54 PM 24.3 °F 16.3 °F 5.5 °F 45% 30.18 in 10.0 mi NW 6.9 mph - N/A   Clear
1:14 PM 24.6 °F 13.8 °F 5.4 °F 44% 30.17 in 10.0 mi NW 11.5 mph 16.1 mph N/A   Clear
1:34 PM 24.6 °F 14.4 °F 5.4 °F 44% 30.17 in 10.0 mi WNW 10.4 mph 16.1 mph N/A   Clear
1:54 PM 25.5 °F 16.9 °F 4.5 °F 41% 30.18 in 10.0 mi NNW 8.1 mph 12.7 mph N/A   Clear
2:15 PM 25.9 °F 17.4 °F 5.5 °F 42% 30.17 in 10.0 mi North 8.1 mph - N/A   Scattered Clouds
2:34 PM 27.0 °F 16.1 °F 4.6 °F 39% 30.17 in 10.0 mi WNW 12.7 mph 17.3 mph N/A   Mostly Cloudy
2:54 PM 25.9 °F 14.8 °F 4.1 °F 39% 30.17 in 10.0 mi NW 12.7 mph 17.3 mph N/A   Mostly Cloudy
3:14 PM 26.2 °F 17.1 °F 4.8 °F 40% 30.18 in 10.0 mi West 9.2 mph 19.6 mph N/A   Mostly Cloudy
3:34 PM 25.3 °F 14.7 °F 4.5 °F 41% 30.18 in 10.0 mi NNW 11.5 mph 17.3 mph N/A   Overcast
3:54 PM 25.0 °F 14.8 °F 4.1 °F 41% 30.19 in 10.0 mi NW 10.4 mph - N/A   Mostly Cloudy
4:14 PM 25.9 °F 15.3 °F 4.3 °F 40% 30.18 in 10.0 mi NNW 11.5 mph - N/A   Overcast
4:34 PM 25.2 °F 18.3 °F 4.5 °F 41% 30.18 in 10.0 mi NNW 5.8 mph - N/A   Overcast
4:54 PM 25.7 °F 17.1 °F 3.6 °F 39% 30.18 in 10.0 mi NW 8.1 mph - N/A   Overcast
5:15 PM 25.5 °F 15.5 °F 2.5 °F 37% 30.19 in 10.0 mi WNW 10.4 mph - N/A   Scattered Clouds
5:34 PM 24.8 °F 16.1 °F 2.8 °F 39% 30.20 in 10.0 mi NW 8.1 mph - N/A   Clear
5:54 PM 24.6 °F 15.1 °F 3.6 °F 40% 30.20 in 10.0 mi NW 9.2 mph - N/A   Clear
6:14 PM 23.9 °F 19.5 °F 4.1 °F 43% 30.20 in 10.0 mi WNW 3.5 mph - N/A   Clear
6:34 PM 24.1 °F 19.7 °F 4.3 °F 43% 30.20 in 10.0 mi WNW 3.5 mph - N/A   Clear
6:55 PM 23.4 °F - 5.0 °F 45% 30.20 in 10.0 mi Calm Calm - N/A   Clear
7:14 PM 23.0 °F - 5.0 °F 46% 30.20 in 10.0 mi Calm Calm - N/A   Clear
7:34 PM 22.1 °F - 5.5 °F 49% 30.21 in 10.0 mi Calm Calm - N/A   Clear
7:54 PM 21.9 °F - 5.7 °F 50% 30.20 in 10.0 mi Calm Calm - N/A   Clear
8:14 PM 21.6 °F - 6.6 °F 53% 30.20 in 10.0 mi Calm Calm - N/A   Clear
8:34 PM 21.0 °F - 6.4 °F 53% 30.21 in 10.0 mi Calm Calm - N/A   Clear
8:54 PM 20.7 °F - 7.3 °F 56% 30.21 in 10.0 mi Calm Calm - N/A   Clear
9:15 PM 21.0 °F - 6.8 °F 54% 30.22 in 10.0 mi Calm Calm - N/A   Clear
9:34 PM 20.7 °F - 7.5 °F 57% 30.22 in 10.0 mi Calm Calm - N/A   Clear
9:54 PM 21.2 °F 16.4 °F 7.7 °F 56% 30.22 in 10.0 mi East 3.5 mph - N/A   Clear
10:14 PM 21.0 °F 14.6 °F 7.2 °F 55% 30.22 in 10.0 mi ESE 4.6 mph - N/A   Clear
10:34 PM 20.8 °F 16.0 °F 7.0 °F 55% 30.22 in 10.0 mi ESE 3.5 mph - N/A   Clear
10:54 PM 20.8 °F - 7.0 °F 55% 30.22 in 10.0 mi Calm Calm - N/A   Clear
11:14 PM 20.5 °F - 7.7 °F 58% 30.22 in 10.0 mi Calm Calm - N/A   Clear
11:34 PM 20.3 °F - 8.4 °F 60% 30.22 in 10.0 mi Calm Calm - N/A   Clear
11:54 PM 20.3 °F - 9.1 °F 62% 30.22 in 10.0 mi Calm Calm - N/A   Clear